Terminal Aerodrome Forecast
Issued by NWS

Home | Current Version | Previous Version | Graphics & Text | Print | Product List | Glossary On
Versions: 1 2 3 4 5 6 7 8 9 10 11 12 13 14 15 16 17 18 19
000
FTUS43 KLSX 310859 AAA
TAFSUS
TAF AMD
KSUS 310859Z 3109/0106 00000KT 5SM BR SCT050
      TEMPO 3109/3112 1/2SM FG
     FM311300 18006KT P6SM SCT040
     FM010100 VRB03KT P6SM SCT250=

USA.gov is the U.S. government's official web portal to all federal, state and local government web resources and services.